RH
28 28 28 29 30 33 38 39 37 38 43 40 34 35 38 38 41 46 50 54 59 64 67 67 66 67 63 57 55 51 47 50 54 54 48 37 27 22 18 16 17 21 27 29 27 26 29 38 46 50 54 55 55 60 63 59 53 53 59 60 59 60 63 66 67 70 74 77 76 76 78 79 79 82 83 79 76 75 74 72 71 73 77 76 73
27 27 28 28 32 37 38 36 36 41 46 44 40 40 41 40 42 47 52 55 61 66 68 68 67 66 62 57 55 53 50 51 54 53 45 30 19 17 14 12 12 13 15 16 19 22 23 28 37 45 53 55 54 58 62 59 54 55 57 57 59 62 61 62 65 69 74 76 75 75 78 81 81 80 79 77 76 75 74 74 74 75 75 74 73
25 26 27 29 37 41 38 36 39 42 44 45 45 44 42 42 44 48 53 58 63 66 67 69 69 66 63 58 54 51 48 45 46 44 35 23 18 17 15 13 12 11 10 10 12 15 19 26 32 39 48 53 55 62 63 59 58 60 59 56 58 61 62 62 64 68 72 74 73 72 74 77 78 77 75 75 75 75 75 76 76 78 79 78 78
25 25 26 32 40 40 37 38 40 41 45 47 47 46 45 45 46 48 54 61 65 66 68 71 71 64 56 50 48 46 38 34 33 30 24 21 21 20 19 18 16 12 10 8 8 8 11 17 22 28 36 43 51 60 62 59 60 62 61 59 56 58 62 61 63 68 68 69 70 69 71 74 75 76 75 74 74 75 77 78 78 80 82 83 85
24 25 27 36 42 40 38 40 40 42 47 49 49 48 47 47 47 51 58 64 66 67 68 72 71 60 48 42 40 35 26 25 25 23 23 24 24 24 24 23 21 18 14 11 8 6 6 8 11 17 23 32 41 49 53 51 52 56 58 59 57 56 58 57 59 64 64 66 68 67 70 73 74 75 74 76 76 75 77 79 80 84 88 88 87
31 35 38 42 43 41 42 43 42 42 47 50 50 47 45 46 49 55 63 67 68 68 68 69 69 61 51 41 35 30 23 22 23 24 26 27 28 28 28 28 26 23 20 14 9 7 6 5 5 7 9 17 27 36 42 41 43 49 51 56 59 54 52 50 52 57 60 64 69 71 73 73 71 70 71 78 81 78 77 78 80 84 89 89 87
39 46 49 50 47 47 47 46 44 42 45 49 49 47 45 48 52 57 64 69 68 67 65 62 62 64 58 45 35 31 25 23 25 27 29 29 31 32 31 31 30 29 26 20 15 10 7 6 6 7 6 8 13 22 32 38 44 48 49 55 59 54 51 48 48 53 56 62 69 74 75 71 68 66 63 69 79 80 80 79 80 84 86 88 87
45 48 53 55 53 51 49 46 45 43 44 48 48 46 47 50 56 62 67 70 68 65 61 53 52 58 54 42 35 30 25 25 28 30 31 32 33 34 33 33 33 32 31 28 24 16 9 6 7 8 9 10 12 15 21 32 43 50 54 60 61 59 58 56 55 55 56 61 68 73 75 71 67 64 59 60 69 74 79 82 81 84 86 87 86
53 56 57 57 55 51 49 48 47 44 43 47 47 46 49 54 59 65 69 70 66 63 59 48 43 46 42 36 32 27 25 28 31 32 33 32 33 33 33 33 34 34 35 33 29 22 13 8 6 7 10 13 16 17 16 21 33 43 51 59 65 67 68 65 64 62 61 65 69 72 73 69 65 63 58 56 59 64 74 85 86 86 86 85 83
63 65 62 59 56 52 49 48 48 44 40 43 47 49 53 57 60 67 71 70 65 61 57 48 42 40 35 32 28 25 29 32 33 33 32 31 31 31 31 31 30 31 35 36 32 26 17 9 6 6 7 11 15 17 18 20 28 35 41 50 60 67 69 67 66 66 65 66 68 67 65 64 64 63 61 58 59 63 71 81 86 86 87 87 86
70 67 63 61 56 51 48 48 49 45 40 43 49 54 57 59 63 69 71 70 65 60 53 44 41 38 29 27 26 27 32 34 33 33 31 31 31 30 29 28 27 28 32 37 36 29 20 12 7 5 5 7 11 15 19 23 27 30 34 42 52 60 65 64 64 63 63 63 62 59 57 60 63 63 64 66 69 72 74 79 83 84 84 87 88
74 68 63 58 52 48 47 50 51 46 42 46 52 56 58 60 66 71 72 71 65 60 53 44 41 35 25 24 27 31 38 38 35 33 32 32 32 31 30 30 30 31 32 36 38 32 22 13 8 6 5 5 6 10 15 19 22 23 25 32 42 50 53 55 57 58 59 59 58 57 57 59 63 64 65 69 73 75 76 80 84 84 83 85 85
71 63 56 49 46 46 48 50 51 46 43 45 49 53 55 60 68 72 74 73 66 61 55 49 44 36 29 27 29 37 44 43 40 38 37 35 33 33 32 32 35 39 40 40 39 34 24 14 8 6 5 5 5 6 10 13 15 15 16 19 26 31 34 38 44 48 51 55 59 62 64 63 64 66 66 69 75 77 75 78 83 83 82 84 84
63 53 46 45 42 43 49 53 49 45 42 43 48 51 54 61 68 70 74 74 67 61 55 49 42 38 38 32 30 40 44 41 41 41 39 36 35 34 34 37 42 47 48 45 42 35 24 14 9 6 5 5 5 5 7 9 11 12 13 14 19 23 27 33 38 41 46 52 56 61 64 63 63 67 70 74 80 83 81 81 84 86 83 79 78
55 47 45 47 42 41 51 56 49 40 37 39 46 49 52 60 65 68 73 72 67 60 55 50 39 39 47 40 34 41 42 39 40 40 39 38 37 36 37 43 49 54 52 48 44 34 22 14 8 6 6 5 6 6 6 7 9 10 11 13 18 24 31 40 45 43 45 51 55 57 61 65 68 69 72 74 77 79 80 79 79 81 80 74 69
49 46 48 49 44 44 55 58 47 35 32 37 42 46 52 60 65 67 71 71 66 60 57 54 43 44 52 42 35 41 42 41 42 40 40 39 38 39 41 47 54 56 53 49 44 29 16 11 7 6 7 6 6 7 7 7 8 8 9 11 15 20 26 36 40 37 39 47 53 56 60 65 67 65 66 69 68 69 73 75 75 73 71 66 61
46 48 56 55 48 51 60 60 47 35 35 40 42 46 52 58 64 68 70 70 66 60 59 56 48 49 50 38 36 42 42 43 43 41 42 41 40 42 45 52 57 57 51 45 39 25 12 9 7 6 7 6 7 7 7 8 8 8 8 8 10 11 13 19 23 26 31 37 42 46 50 55 58 57 59 62 62 65 71 76 77 71 63 58 53
50 59 65 62 59 63 67 61 47 39 42 44 43 47 52 58 65 69 71 72 67 61 61 59 53 54 50 37 38 43 43 45 45 43 44 42 43 47 50 55 59 57 50 40 32 22 13 9 8 7 7 6 6 6 7 7 8 8 8 8 9 9 9 11 15 19 22 24 26 31 35 39 42 46 51 54 57 63 69 76 74 61 50 46 40
62 70 73 69 67 72 71 60 50 48 51 51 49 52 56 61 68 73 75 77 73 65 62 61 59 61 58 47 42 43 45 48 47 46 46 44 47 52 53 58 60 54 45 37 30 23 18 15 13 12 10 9 8 7 7 7 7 7 7 6 7 7 8 9 10 12 12 12 13 17 20 21 23 28 33 36 40 41 44 53 52 39 32 33 28
81 81 79 76 73 79 80 67 58 57 58 59 60 63 67 71 74 77 78 80 79 72 68 66 63 62 63 58 50 46 48 50 49 50 49 46 49 53 56 60 58 48 40 36 33 28 25 24 22 21 20 19 19 19 19 18 17 17 14 13 13 11 10 10 9 8 8 7 8 9 10 9 10 13 13 13 15 14 14 20 22 18 21 28 26
89 88 86 82 76 82 83 73 68 65 61 64 71 76 80 80 77 76 77 77 78 76 72 67 61 60 63 62 57 50 48 51 52 51 49 46 49 53 57 63 57 45 39 38 36 34 31 30 29 29 30 30 31 32 32 32 32 33 31 29 28 26 24 23 21 18 15 13 12 11 11 11 12 13 14 13 13 12 11 11 10 10 14 20 23
83 87 90 88 79 76 74 72 74 69 61 65 77 84 85 82 78 75 73 70 69 69 66 62 60 61 62 62 59 52 51 55 56 51 46 45 50 54 58 65 60 48 41 39 38 38 36 35 34 34 36 38 40 41 41 42 44 45 44 42 41 40 39 39 37 35 34 31 28 27 26 26 26 26 27 27 26 24 23 22 19 16 14 15 19
81 85 89 91 86 78 71 73 77 75 70 72 78 82 82 83 82 76 71 69 69 70 68 66 65 65 65 66 64 58 58 62 60 54 48 46 51 56 60 65 61 51 44 42 45 46 42 39 37 37 41 43 45 47 47 49 51 51 51 50 49 47 46 48 49 48 48 47 45 44 44 43 43 42 41 38 36 35 34 33 32 29 27 25 26
82 84 87 88 86 81 74 72 74 77 80 79 79 82 83 86 86 79 74 75 76 75 74 72 71 71 73 75 74 70 66 68 67 59 49 47 53 57 62 67 62 53 46 45 52 55 48 42 40 39 41 44 47 49 50 52 54 55 56 55 54 53 51 52 55 56 56 56 55 54 55 55 54 54 54 53 51 49 45 43 40 38 36 35 35
81 80 80 77 77 78 75 73 74 76 78 75 79 89 90 87 88 86 82 81 81 80 77 77 78 79 81 81 81 78 72 74 76 63 48 48 55 57 63 69 63 54 48 47 56 65 60 54 50 43 40 41 42 45 47 49 50 52 55 55 55 55 54 56 59 60 60 60 59 59 60 62 62 61 61 61 61 61 60 58 53 47 43 42 40
79 76 74 69 70 74 75 75 76 77 76 72 77 89 93 89 88 89 88 87 89 88 84 82 82 83 85 86 85 82 78 81 84 75 63 61 61 59 63 69 65 55 47 48 60 71 68 63 63 60 53 47 42 40 40 41 42 44 46 48 48 48 49 53 56 59 61 61 60 61 62 64 66 65 64 64 64 64 65 65 63 60 56 52 49
82 79 77 73 72 73 73 72 74 76 76 77 83 92 95 91 87 88 91 92 95 96 94 92 92 91 91 91 89 88 87 89 90 89 84 77 72 70 69 70 65 54 49 56 66 70 63 59 65 70 69 63 56 51 47 46 49 50 51 53 53 54 55 53 50 51 55 56 58 60 62 63 64 64 64 65 65 64 64 63 63 63 63 62 62
84 83 81 78 73 71 71 70 72 75 78 84 91 95 95 90 87 88 91 89 89 92 93 93 95 96 96 95 94 95 95 95 94 92 90 85 81 76 69 66 62 56 57 63 65 62 57 56 62 68 70 69 66 64 63 62 63 64 64 66 68 71 73 69 62 55 54 60 67 70 71 72 72 71 70 69 70 71 71 70 69 67 67 67 69
84 83 80 77 71 69 70 71 73 76 81 87 93 93 89 84 82 82 83 82 82 87 90 91 93 96 96 96 94 94 96 98 96 93 91 90 87 78 69 66 62 59 61 61 59 61 61 57 59 65 68 68 68 68 66 66 67 68 69 72 74 77 79 80 79 71 64 71 81 82 80 81 81 83 84 82 81 81 81 82 81 78 76 74 72
84 80 76 71 68 67 69 72 76 80 86 90 91 88 82 80 80 78 76 76 76 78 83 87 90 91 91 92 91 90 92 96 97 95 91 90 90 84 76 68 58 54 56 53 50 59 65 59 57 62 67 68 68 67 66 66 66 67 70 72 73 75 77 80 86 84 78 81 89 91 89 88 87 88 91 90 84 81 83 86 86 84 81 79 78
83 77 71 67 66 68 70 73 78 83 88 90 88 85 81 78 77 74 73 73 74 74 76 81 88 90 90 93 93 91 90 89 92 93 90 88 89 88 84 77 65 55 51 48 47 60 73 69 59 59 62 62 63 65 66 66 66 68 71 74 77 79 80 80 84 87 86 87 92 93 91 89 89 90 90 87 82 80 81 82 81 81 81 81 82
80 76 74 72 74 77 79 83 84 86 89 91 90 88 82 75 71 70 71 73 75 76 75 76 83 88 90 92 91 89 89 86 83 86 91 91 91 92 89 87 84 75 67 66 69 77 85 80 69 63 60 58 59 63 65 67 69 71 74 79 83 84 81 80 82 86 88 88 88 87 84 82 82 82 80 77 78 81 83 81 78 78 80 84 88
79 78 78 79 81 83 84 85 86 87 89 91 90 87 81 75 73 73 74 74 73 72 73 73 74 76 83 91 91 90 93 92 85 86 91 88 88 93 90 86 90 91 87 87 88 89 89 84 77 72 67 66 67 68 72 75 75 77 81 85 85 83 80 79 80 84 83 78 76 76 75 74 74 73 72 70 70 74 78 81 81 81 83 87 92
80 81 80 80 83 85 83 82 82 84 86 87 86 84 81 79 78 75 72 69 65 61 63 66 64 62 69 80 84 86 89 92 91 91 90 86 85 89 86 82 87 93 93 92 90 89 88 86 82 75 68 69 73 73 77 81 82 86 89 85 80 80 81 80 79 82 80 72 69 70 70 69 70 69 69 67 66 65 66 71 75 79 82 86 91
86 84 82 82 86 87 84 81 79 79 80 81 81 80 80 79 77 73 69 65 61 56 56 60 62 61 62 66 71 75 78 83 89 91 92 91 89 87 83 82 86 88 90 90 87 85 85 85 87 82 72 72 77 78 81 85 87 89 86 79 76 76 79 81 82 83 80 73 71 70 66 64 65 65 64 63 63 63 63 63 67 72 78 83 91
95 90 85 84 87 89 88 85 80 75 75 77 77 77 76 73 69 67 65 65 65 63 61 63 69 73 72 71 72 73 72 73 79 83 85 87 87 84 80 80 83 85 86 87 86 85 84 85 88 86 79 81 84 82 82 85 85 80 73 71 74 70 66 68 70 70 69 66 65 63 59 56 56 57 60 61 61 63 62 60 61 65 71 79 91
98 95 92 88 88 92 94 93 90 86 84 82 80 78 77 75 70 67 66 65 66 65 64 68 74 78 80 80 78 78 76 74 73 75 78 80 82 82 78 74 76 79 82 85 86 85 83 83 83 77 70 72 80 83 85 87 84 76 67 64 66 63 55 53 54 54 55 55 54 52 50 48 48 52 59 62 61 61 60 58 57 60 65 73 85
91 90 89 86 86 88 87 87 88 88 88 86 83 84 86 86 83 79 76 73 71 70 71 77 83 85 86 86 84 83 83 82 79 77 78 81 83 83 80 77 76 75 76 80 82 81 78 75 74 69 59 56 64 72 75 75 71 68 62 58 58 58 53 50 49 50 49 47 46 44 42 40 41 47 52 55 56 58 58 56 56 60 64 68 77
89 90 90 90 90 90 88 87 86 85 87 86 85 89 94 96 95 94 92 91 90 89 87 88 90 90 89 89 88 88 87 86 84 80 81 85 87 86 84 84 84 80 76 75 76 76 74 70 69 69 61 52 50 53 55 55 55 57 58 56 53 51 49 49 49 48 45 44 42 40 38 37 38 41 43 45 49 53 57 60 63 65 65 67 76
96 97 98 97 98 97 97 97 96 94 93 92 92 93 97 99 100 99 98 97 95 93 92 91 92 92 91 91 91 91 90 88 86 83 82 84 85 84 83 85 86 84 80 79 78 77 75 73 71 67 60 52 49 51 54 55 55 52 50 48 45 45 47 48 47 45 42 40 38 37 37 38 40 41 41 41 43 47 54 63 69 71 72 74 82
100 99 99 99 99 99 99 100 100 98 97 97 96 95 97 99 100 99 99 98 95 92 91 91 93 94 93 91 90 89 88 88 88 86 85 85 85 85 85 85 85 85 84 83 81 78 74 70 66 61 56 52 50 50 53 55 53 49 44 41 40 42 44 45 43 41 39 37 36 37 38 41 44 44 42 40 41 44 53 65 74 79 80 79 81
99 100 100 100 100 100 100 100 100 99 99 99 99 98 98 99 100 99 99 98 97 96 96 95 96 96 92 89 86 83 82 83 84 83 82 81 82 82 82 81 80 79 78 75 74 71 69 66 63 60 59 58 57 55 54 53 51 49 45 43 42 41 41 40 39 38 38 37 37 37 39 41 42 42 40 39 39 44 54 65 76 83 83 79 76
100 99 98 96 96 97 98 99 99 100 99 99 99 100 100 100 100 100 100 100 100 100 99 99 98 95 92 88 84 82 82 83 82 79 76 74 73 73 74 73 72 71 69 68 67 66 66 65 65 63 62 62 63 63 61 58 55 52 50 49 48 46 44 41 39 39 39 39 38 38 39 39 39 39 38 38 42 51 60 69 79 87 87 82 74
97 96 93 91 91 92 93 95 97 99 99 98 98 98 98 99 99 98 98 99 99 99 98 97 95 94 92 90 88 87 86 84 81 77 74 71 69 68 67 67 66 65 64 64 64 64 64 65 64 63 62 62 64 67 67 64 61 59 57 56 55 54 53 50 47 45 43 42 41 42 42 39 37 36 35 38 40 43 52 66 79 88 90 83 71
90 92 92 93 93 92 91 91 91 92 94 95 95 94 95 97 96 94 94 96 96 95 94 93 92 91 90 87 86 82 77 73 69 66 65 64 63 63 63 62 59 57 54 52 50 49 48 48 48 48 50 54 57 61 63 63 61 60 60 59 59 59 59 57 55 53 51 47 45 46 47 43 37 33 33 36 36 38 53 71 78 81 85 78 66
80 83 86 88 89 89 88 87 86 85 87 88 88 89 90 91 89 86 86 88 88 86 85 84 82 80 76 73 71 68 64 61 59 58 59 60 60 61 63 62 61 60 58 56 53 50 48 47 46 46 47 51 55 59 62 64 64 64 64 64 64 64 63 61 58 56 55 53 49 50 51 49 45 40 36 36 37 43 62 80 81 81 84 78 71
78 78 77 76 76 75 74 73 73 72 73 73 74 75 76 76 75 74 74 75 74 73 72 70 68 66 64 61 59 58 56 55 54 53 53 54 56 58 60 61 62 63 64 64 64 63 63 63 63 63 62 64 66 67 68 69 68 68 69 68 67 66 66 67 66 61 56 54 53 56 60 59 55 51 47 47 47 49 63 79 85 86 86 83 80
79 76 73 70 67 65 63 61 60 59 58 57 57 58 58 58 59 59 58 58 58 58 57 56 55 53 52 51 49 48 47 47 46 47 47 48 48 50 53 55 58 60 63 65 66 67 67 68 68 69 69 70 71 72 71 70 69 69 68 67 66 65 65 68 72 71 63 57 55 57 62 67 67 61 57 56 54 55 64 77 83 84 85 86 86
75 73 70 67 63 59 56 54 51 49 46 45 43 42 41 41 41 41 40 40 39 39 39 38 38 37 36 36 35 35 34 35 35 36 36 37 37 37 38 39 41 44 46 49 50 52 53 54 54 55 55 56 57 56 55 54 54 54 54 51 50 50 52 55 60 62 60 59 60 58 58 64 69 67 65 65 63 61 66 74 79 84 87 86 88
69 65 58 52 46 42 38 35 32 29 27 24 22 21 20 19 18 18 17 17 17 17 16 16 16 16 15 15 14 14 14 14 14 14 14 14 14 14 15 15 15 16 17 18 19 19 20 21 21 21 21 22 21 21 20 21 21 21 22 22 21 23 28 34 41 46 49 53 61 66 65 65 66 67 72 77 74 70 74 83 91 95 94 91 91
52 45 37 31 26 23 19 16 14 12 11 10 9 9 8 8 8 7 7 8 8 8 8 8 7 7 7 7 8 8 8 8 8 8 8 8 8 8 8 7 7 7 7 8 8 7 7 8 7 7 8 8 8 7 7 7 8 7 7 8 7 8 12 18 27 39 48 54 63 72 75 73 72 73 76 79 74 70 77 90 97 97 97 98 97
Wind_Speed
11 11 12 11 11 10 8 7 10 12 12 11 9 8 8 8 9 9 8 7 8 10 13 16 18 21 22 21 18 16 14 12 11 12 10 9 9 8 7 7 8 9 9 10 10 11 11 12 13 12 12 13 13 12 10 10 10 10 10 9 9 9 8 8 8 9 9 9 9 9 9 10 10 10 10 10 10 9 8 8 8 8 9 9 9
14 14 14 14 13 11 9 9 10 10 10 10 10 9 10 9 9 9 8 7 8 10 12 14 17 20 20 18 16 15 12 11 12 13 11 10 8 6 6 5 5 5 6 6 7 8 10 12 13 13 13 13 12 12 11 10 10 10 10 9 9 9 8 8 8 9 9 9 9 9 9 9 9 10 10 10 10 9 9 8 8 8 9 9 9
16 15 15 16 14 11 9 9 10 10 9 9 10 10 11 9 8 8 8 8 9 12 14 14 17 19 19 18 16 14 13 13 14 14 12 10 8 6 5 4 3 3 3 4 5 7 8 10 11 12 13 13 13 12 12 11 10 10 10 9 8 8 8 8 8 8 9 9 9 8 9 9 9 9 10 10 10 10 9 9 8 8 8 8 8
18 17 17 17 15 11 9 9 8 8 8 8 8 10 10 8 7 7 8 10 12 14 16 16 19 21 21 19 17 16 15 14 14 13 11 9 7 6 4 3 2 2 3 3 4 5 6 7 9 11 12 14 14 14 13 12 11 10 10 9 9 9 9 8 8 8 8 9 9 9 9 9 9 8 9 9 9 9 10 9 9 8 7 6 7
19 18 17 17 14 10 10 9 7 6 7 7 8 10 9 7 6 7 9 12 14 16 17 19 22 24 23 21 19 18 17 15 13 12 10 9 7 6 4 2 1 2 3 3 4 4 5 6 7 9 12 13 14 15 14 12 11 11 10 10 10 10 10 10 9 9 9 8 8 9 9 8 7 7 7 7 8 9 9 10 10 8 6 6 7
20 17 16 15 12 11 10 8 6 6 8 9 11 12 12 10 9 10 12 15 17 18 18 19 22 25 23 19 17 17 15 13 12 11 9 8 6 4 3 1 1 2 3 3 4 4 4 5 6 8 9 10 11 11 12 12 11 11 11 11 11 11 11 11 10 10 9 8 7 8 8 7 7 6 6 6 7 8 8 9 9 8 6 6 6
22 19 17 15 12 11 9 7 6 7 8 11 14 15 14 12 11 12 15 17 19 18 17 18 21 24 23 18 14 14 14 13 12 11 10 8 6 4 3 2 1 1 2 3 3 4 3 4 5 6 6 7 7 8 9 11 11 11 11 12 12 12 11 11 10 10 9 9 8 7 8 7 7 7 7 7 7 7 8 8 8 8 7 6 6
22 21 18 15 12 11 9 7 7 8 11 15 16 16 14 13 13 15 17 19 20 18 17 19 21 23 21 17 15 15 14 14 13 11 9 7 6 5 3 1 0 1 2 3 4 4 4 4 4 3 4 5 6 6 7 9 11 11 11 11 12 11 10 10 9 9 9 9 9 8 8 7 7 7 8 7 7 8 7 7 7 7 7 6 6
23 21 18 15 13 12 9 8 9 10 14 16 16 16 14 13 14 16 19 20 20 18 20 22 22 21 18 17 17 16 16 16 14 12 10 8 7 5 3 1 1 2 2 3 4 4 5 5 4 3 3 4 5 5 6 7 9 10 11 11 11 10 9 9 8 8 9 9 10 9 8 7 7 7 7 7 8 8 7 5 6 6 6 7 7
25 21 17 15 14 11 9 9 10 11 15 16 16 15 15 14 15 17 19 20 20 20 21 23 22 19 18 19 18 17 18 16 14 12 10 8 6 5 3 0 2 3 3 3 4 4 4 5 5 3 3 4 4 4 4 5 7 8 9 10 11 10 9 9 8 9 9 10 10 9 8 8 7 7 7 7 8 8 7 6 6 7 7 7 7
25 20 17 15 12 10 12 12 11 13 15 16 16 15 14 14 16 18 19 20 21 21 22 23 21 19 20 20 19 18 17 14 11 11 9 7 6 4 2 1 3 4 5 5 5 5 4 4 4 3 3 4 4 4 4 5 5 6 7 9 10 10 10 9 9 9 9 10 10 9 9 9 8 8 8 7 7 8 7 5 5 6 6 6 7
24 19 16 12 10 13 14 13 13 14 15 16 16 15 14 14 17 18 19 21 22 22 23 23 21 20 20 20 20 19 15 12 11 10 8 6 5 3 2 2 4 5 6 6 6 6 5 5 4 3 4 4 5 4 4 4 4 5 6 8 9 10 10 10 10 10 9 9 9 9 9 9 9 9 9 9 8 8 6 4 4 5 6 7 8
22 15 10 10 12 13 12 12 14 15 15 16 16 15 14 15 17 18 19 21 23 23 23 24 22 20 20 20 21 19 16 14 13 11 9 8 6 4 2 2 4 5 5 7 8 7 6 6 5 4 5 5 5 5 5 4 4 4 5 6 7 8 9 9 9 9 9 10 9 9 9 9 9 9 9 9 8 7 6 5 4 5 6 7 8
17 8 8 10 11 10 10 12 15 15 15 16 16 15 14 15 17 18 19 22 24 24 24 23 23 21 20 20 21 19 18 17 16 14 13 10 7 5 3 2 3 5 6 6 8 8 7 7 6 5 5 6 5 5 5 5 5 5 5 5 5 6 6 7 7 8 9 10 9 10 10 9 9 9 9 9 8 6 5 5 5 4 6 8 8
10 9 10 10 9 10 13 15 15 15 14 16 16 15 14 16 17 18 19 22 24 25 24 23 22 21 20 21 21 21 20 18 16 15 14 10 8 6 5 4 4 5 6 5 7 9 8 7 7 6 6 6 6 6 6 6 6 6 6 6 5 6 7 7 7 8 9 10 10 10 9 8 8 9 9 9 9 8 7 7 7 6 7 8 8
11 12 11 11 10 11 15 17 16 15 14 15 16 15 15 16 18 18 19 22 25 26 25 23 22 21 20 21 22 22 20 18 16 15 13 11 9 8 6 5 5 6 5 5 7 8 8 7 7 7 7 7 7 7 7 7 7 7 7 7 6 6 7 7 6 7 8 9 9 9 8 7 7 7 7 7 7 7 7 7 7 7 7 8 8
15 12 12 13 13 15 18 19 18 16 15 15 15 14 14 16 18 19 20 24 27 27 27 25 23 21 20 22 22 21 19 17 16 15 13 11 9 8 6 6 6 6 5 6 7 8 8 7 8 8 8 8 8 8 8 9 8 8 7 7 7 6 5 5 6 6 6 7 7 7 7 6 5 5 4 4 4 4 4 5 6 7 8 9 10
17 14 15 16 18 21 22 22 21 19 17 17 15 15 15 17 19 21 22 25 28 29 29 26 25 22 20 21 21 20 19 17 16 15 13 12 10 8 9 10 8 5 5 6 6 7 7 7 8 9 10 10 10 9 9 10 10 9 8 8 7 6 6 6 6 6 6 5 5 5 5 5 4 3 3 3 4 4 3 4 7 7 8 9 9
16 15 17 19 22 24 25 25 24 21 20 19 18 17 18 19 22 23 24 27 30 33 33 29 26 23 21 21 20 20 19 17 17 16 14 13 12 11 13 14 8 5 6 6 6 7 7 8 9 10 11 11 11 11 11 11 10 10 9 8 8 8 7 6 6 6 6 6 5 4 3 3 3 2 2 3 3 2 3 6 7 8 7 7 7
16 17 19 21 23 24 26 26 24 22 22 22 21 21 22 24 26 27 28 30 33 34 32 28 26 24 22 21 20 20 19 19 19 17 15 16 15 15 15 13 6 6 7 7 7 7 8 9 10 11 12 13 13 13 13 12 11 11 10 10 9 9 8 8 6 6 6 6 5 5 4 4 4 3 3 3 3 2 3 6 7 7 6 6 6
19 21 22 22 23 22 23 24 24 23 24 24 24 25 27 29 29 28 28 28 27 26 24 23 25 26 25 23 22 22 21 20 20 18 18 19 17 16 14 10 7 8 8 7 8 8 9 10 11 13 13 14 14 13 13 12 11 11 10 10 9 9 9 8 7 7 6 6 6 6 5 5 4 4 3 3 3 3 4 5 5 5 6 6 7
20 21 21 20 20 21 22 24 24 24 25 26 27 28 30 30 27 24 22 21 19 20 21 21 23 24 24 24 24 24 23 22 21 21 21 21 19 17 14 10 10 10 9 9 8 8 9 9 11 12 13 13 13 13 12 11 11 10 9 8 8 8 7 6 6 5 5 5 5 5 4 4 4 3 2 1 1 0 1 3 4 4 5 7 8
17 19 19 19 20 21 22 24 24 25 26 27 28 28 29 25 19 17 18 19 19 21 23 23 24 24 24 24 26 26 24 23 23 23 23 22 21 19 16 12 13 12 10 10 9 9 9 9 10 11 12 12 12 11 11 10 10 9 8 7 6 5 5 5 4 3 2 2 2 2 2 2 1 0 1 2 3 4 4 3 2 2 4 6 8
16 17 18 18 19 19 19 20 22 24 25 25 26 26 23 18 14 15 17 19 21 23 24 24 25 25 25 26 28 29 27 25 25 25 24 24 24 23 20 15 15 14 12 11 11 10 9 9 10 11 11 10 10 9 9 9 9 8 7 6 5 3 3 3 3 3 2 2 1 1 1 1 1 2 3 4 5 6 7 7 7 6 6 6 7
17 18 18 18 18 18 19 20 22 24 23 23 25 24 19 15 16 17 19 21 23 24 25 25 26 25 26 27 28 29 30 29 29 28 28 27 26 25 23 18 17 16 13 13 13 12 11 10 10 10 9 9 9 9 9 8 8 7 7 6 5 4 4 4 4 4 4 4 4 4 4 5 5 6 6 6 7 8 9 10 10 11 10 10 10
19 19 19 19 19 18 19 20 21 22 24 25 26 23 18 15 15 15 18 23 25 25 26 27 28 27 27 28 28 29 31 33 32 31 31 31 30 28 26 20 18 16 15 15 13 11 10 10 9 8 8 9 9 9 9 9 8 8 7 6 6 6 6 7 7 7 7 7 8 8 8 9 10 10 10 10 10 10 11 12 13 13 14 14 14
18 19 18 17 17 17 17 18 21 23 25 26 26 23 19 15 13 13 13 17 21 22 24 26 29 29 28 28 28 29 31 33 33 32 33 33 30 27 26 21 19 18 18 16 12 9 9 10 9 9 9 10 10 10 10 11 10 9 8 8 8 9 9 10 10 10 11 11 11 12 12 13 14 14 14 14 14 14 13 14 14 15 15 16 16
16 17 16 15 15 15 16 18 20 23 24 25 25 24 19 15 16 16 12 11 12 12 12 15 21 27 29 29 29 30 32 34 35 35 36 35 31 27 26 24 21 20 18 15 13 11 12 12 12 12 12 12 12 12 11 11 11 10 10 10 10 11 12 12 13 13 13 13 13 13 14 15 16 16 16 16 16 16 15 15 15 16 16 17 18
15 15 14 14 13 13 14 15 17 19 21 23 23 20 16 14 15 15 13 12 11 7 5 6 10 16 19 22 24 25 27 30 29 28 28 28 26 27 28 24 21 21 18 16 17 16 16 16 15 15 15 14 14 13 13 13 12 12 13 13 13 14 14 14 15 15 15 14 14 14 15 16 17 17 17 17 17 17 17 17 17 17 17 18 19
17 16 14 14 13 13 13 12 12 14 16 18 17 15 13 11 11 11 11 12 11 8 7 7 9 10 11 14 17 17 18 18 16 17 20 22 23 24 25 23 22 21 18 19 21 20 18 19 19 18 17 17 17 16 15 15 15 15 15 16 17 17 17 16 16 17 16 16 16 16 17 18 18 18 18 17 18 19 19 20 20 20 20 19 20
18 16 15 15 14 14 13 12 11 12 12 12 12 11 10 9 9 9 11 11 9 7 7 8 9 10 10 12 14 14 13 12 13 18 20 21 21 22 22 22 22 22 20 21 23 22 20 21 22 21 21 20 19 19 18 18 18 18 18 19 19 19 19 19 18 18 18 19 19 20 20 20 19 19 19 19 20 20 21 22 22 22 23 22 22
20 18 17 17 16 15 14 14 13 13 13 12 10 9 8 8 8 8 8 7 5 5 6 8 11 11 10 11 12 12 13 14 16 19 19 19 20 21 22 22 22 22 21 22 22 22 21 22 24 24 24 23 22 21 21 21 21 21 21 22 21 21 22 21 18 18 19 20 21 22 22 20 19 19 20 20 20 21 22 23 24 25 25 25 25
21 20 19 18 17 16 16 16 15 15 15 13 11 10 8 8 7 7 6 5 4 4 5 7 9 10 10 9 10 10 12 14 14 16 18 19 19 21 23 23 22 22 22 22 22 22 21 22 24 24 24 24 23 23 22 22 23 23 23 23 22 21 21 20 16 17 20 20 21 22 22 21 20 20 21 22 22 22 23 24 26 27 28 28 27
22 22 21 19 18 17 17 17 17 15 15 13 12 11 10 9 9 8 7 6 5 5 5 5 5 6 6 6 7 9 11 12 13 16 19 20 20 23 24 24 24 24 23 23 23 23 23 24 24 24 24 24 24 25 24 24 25 25 24 23 22 21 22 21 18 18 20 20 20 21 21 21 22 22 23 24 24 24 24 24 26 28 29 30 29
24 23 22 20 18 18 18 18 18 16 15 13 12 11 9 9 8 8 7 7 7 7 7 6 5 4 4 5 6 8 10 10 12 15 19 20 21 23 25 24 24 24 24 25 25 25 26 25 24 24 24 24 25 25 24 24 25 25 24 23 23 22 23 23 22 22 23 23 22 23 23 23 23 23 24 24 25 25 25 25 26 28 30 30 29
25 24 23 22 21 20 19 18 18 17 15 13 11 9 8 8 9 8 8 8 8 8 8 8 7 6 6 6 6 9 10 11 12 14 16 18 19 22 24 23 23 25 26 26 26 26 26 23 21 22 24 25 26 25 22 22 23 23 24 24 23 23 24 24 24 24 25 25 25 25 25 24 24 24 24 24 24 24 25 26 27 28 29 29 28
17 15 17 18 17 17 17 15 15 16 14 12 11 11 9 9 10 10 10 9 8 8 7 7 7 6 6 7 7 9 11 13 15 16 16 18 19 21 23 23 23 24 25 26 27 26 25 21 19 21 23 26 27 23 21 23 24 24 25 24 23 23 24 24 24 25 25 26 26 26 26 25 25 25 24 23 23 24 24 25 26 27 29 28 27
7 5 8 10 9 8 9 8 8 9 9 9 10 10 8 7 8 9 9 9 9 9 8 7 5 5 7 7 8 9 11 14 16 18 19 20 20 20 22 23 24 24 24 25 25 25 24 23 22 22 23 25 25 21 19 23 25 25 25 25 24 24 24 25 25 25 25 25 25 26 26 26 26 25 25 24 23 24 24 25 26 27 28 28 27
5 6 8 8 8 8 8 7 6 5 6 7 7 8 7 7 8 8 8 8 8 8 8 8 8 8 9 10 11 11 12 14 16 18 20 21 21 21 21 22 23 24 24 25 25 25 24 23 22 22 22 24 25 23 21 22 23 24 25 25 24 25 25 25 25 26 26 26 27 27 27 27 28 28 27 26 25 24 24 25 26 28 28 27 27
10 10 10 9 10 10 10 9 6 5 6 7 7 8 9 9 10 10 9 10 10 10 10 10 11 11 12 13 13 14 14 15 16 18 19 20 21 21 21 21 23 24 25 25 25 25 24 23 23 23 24 24 25 25 25 24 24 25 25 25 25 26 26 26 28 29 29 29 29 29 28 28 29 29 28 27 27 26 25 26 27 28 28 27 27
9 10 9 10 10 9 10 9 6 6 8 9 9 10 12 13 12 11 11 11 13 13 13 13 13 13 14 14 15 15 16 17 19 20 21 21 22 22 23 23 23 23 23 24 24 25 25 25 26 26 26 26 26 26 27 27 27 27 27 27 28 28 29 30 31 32 32 31 30 29 29 29 29 29 29 29 28 28 27 27 28 28 28 29 29
3 4 5 5 6 8 9 9 10 11 12 13 13 14 15 16 15 15 15 16 16 16 16 16 16 16 17 17 17 17 18 18 20 22 23 23 24 24 24 25 25 25 25 25 26 26 27 27 27 28 28 29 29 30 30 31 31 31 31 31 31 31 32 33 33 34 33 32 31 30 29 29 30 30 30 29 29 29 29 29 29 29 30 31 31
7 7 7 6 6 7 9 10 13 15 16 17 17 17 18 18 18 18 19 19 19 19 19 20 20 21 21 22 23 23 23 22 22 23 24 25 25 26 27 28 29 29 29 30 30 31 31 31 31 32 33 33 33 33 34 34 34 34 34 33 32 33 34 35 35 35 34 34 34 32 31 31 30 30 29 29 29 30 31 31 31 32 33 33 32
7 7 7 7 7 8 9 11 13 15 16 18 19 20 21 22 22 22 23 23 23 23 24 24 25 26 27 28 28 27 27 27 26 26 27 28 28 29 31 32 33 34 34 35 36 37 37 38 38 38 37 36 36 36 36 36 36 36 35 34 34 34 35 35 36 35 35 35 35 35 33 32 30 30 30 30 31 33 34 35 35 35 35 34 33
7 8 8 9 10 10 11 12 13 14 15 17 18 20 22 24 25 25 26 27 27 27 28 29 29 29 29 29 29 29 29 29 29 29 30 31 31 32 33 34 35 36 37 38 39 40 40 41 41 41 40 39 38 38 38 37 37 37 36 36 35 35 36 37 37 37 36 36 37 37 35 34 34 34 33 33 35 38 39 38 37 36 35 34 34
11 11 12 12 13 13 14 14 15 16 16 17 18 19 21 22 23 24 25 26 27 28 28 29 29 29 29 29 30 30 31 31 31 32 32 33 34 35 36 37 37 38 39 39 40 40 41 41 42 42 41 41 40 40 40 39 39 38 38 38 37 38 38 40 40 39 38 38 38 38 37 36 36 37 36 35 36 38 40 39 37 38 38 37 36
14 15 16 16 16 17 17 18 19 19 20 21 21 22 23 23 24 24 25 27 28 29 30 31 31 32 32 33 33 34 34 35 35 36 36 37 37 38 39 39 40 40 41 42 42 43 43 43 43 43 43 43 43 43 43 43 42 42 42 41 41 40 41 42 42 41 39 39 39 38 38 38 38 38 38 37 35 37 40 40 37 38 40 40 37
15 16 17 17 17 18 19 20 21 22 23 24 25 25 26 27 27 28 29 30 31 32 33 34 35 36 36 37 37 38 38 39 39 40 40 41 41 42 43 43 44 44 44 45 46 46 46 46 46 47 47 47 46 46 47 47 47 46 46 45 44 43 43 43 43 42 41 41 39 38 39 40 40 40 40 39 39 39 41 41 38 36 39 40 38
15 16 17 17 17 18 19 20 21 22 23 24 24 25 26 27 29 29 30 31 33 34 35 36 37 38 38 39 39 40 40 41 41 42 43 43 44 45 45 46 47 47 47 48 48 48 49 49 49 49 50 50 50 50 50 50 50 50 49 47 46 44 44 44 44 44 44 45 43 42 42 43 43 42 42 43 44 44 43 44 43 40 38 38 37
17 17 17 17 18 19 20 21 21 22 22 23 23 24 25 26 27 27 28 29 30 31 32 33 34 35 36 36 37 37 38 38 39 40 41 41 42 43 43 44 44 44 45 45 46 46 46 46 46 46 47 47 47 46 46 46 47 47 46 46 44 43 43 43 43 43 44 47 48 45 43 43 43 42 42 44 46 46 44 43 42 40 39 38 36
18 18 18 19 19 20 20 19 20 20 20 20 21 21 22 22 23 24 25 25 26 27 28 29 30 31 31 32 32 33 33 33 34 34 35 35 36 36 37 37 38 38 38 38 38 38 38 38 38 38 38 39 40 40 40 41 42 42 43 43 42 42 41 41 42 42 43 46 47 45 42 42 43 43 43 44 45 44 42 40 36 35 37 38 35
Wind_Direction
224 237 246 255 260 262 267 285 307 307 292 276 266 261 252 249 258 261 255 239 219 204 198 196 192 188 186 185 189 196 202 207 209 209 211 213 215 221 230 237 242 244 250 255 255 256 252 249 248 246 245 246 247 248 253 254 249 239 231 228 229 232 235 233 228 226 227 229 232 237 243 247 248 249 251 254 254 251 249 249 247 244 243 248 254
222 233 242 250 250 249 260 285 307 307 290 276 264 249 238 243 253 254 247 230 207 197 197 197 192 188 185 187 192 198 201 202 203 203 203 204 206 211 221 228 236 245 254 261 264 262 256 250 246 243 243 246 247 246 249 249 242 233 227 226 228 231 234 235 231 224 224 230 237 244 247 248 250 253 255 254 250 247 248 248 245 244 245 249 254
221 230 240 246 242 242 261 285 304 302 286 270 254 239 234 241 249 247 233 210 193 189 190 192 191 188 186 189 194 197 197 194 193 194 194 195 196 199 206 214 229 251 262 265 265 261 257 251 247 246 246 248 246 242 243 242 235 229 226 225 227 233 235 234 232 227 226 233 240 245 249 250 250 251 254 255 252 248 246 247 248 246 244 248 254
223 229 238 241 237 242 264 281 296 298 283 268 248 234 234 240 241 238 221 196 188 189 186 186 190 189 186 188 191 192 191 187 185 186 186 184 183 185 192 206 231 268 274 274 272 269 268 262 256 251 247 245 242 237 236 237 234 232 231 229 226 230 235 232 230 229 232 239 240 239 240 244 247 249 254 258 257 253 249 247 247 243 238 240 248
225 233 241 240 237 248 265 274 285 284 265 245 226 223 228 231 224 219 205 187 186 192 190 188 189 189 187 187 187 187 185 182 182 182 180 177 177 182 186 203 258 303 305 304 300 290 279 266 257 248 241 237 235 231 229 230 233 235 236 237 233 231 234 233 229 230 235 241 243 239 234 232 235 242 255 262 260 256 250 243 242 238 227 225 234
226 236 240 236 239 253 262 267 276 273 250 223 211 215 222 220 209 203 194 184 187 193 194 194 191 190 191 190 187 184 181 182 183 179 176 175 176 184 188 205 261 295 309 317 314 303 282 261 250 244 239 236 235 230 226 224 225 230 233 237 238 235 235 234 229 230 232 236 240 241 235 232 232 232 244 257 261 261 252 241 238 237 229 224 228
219 223 226 228 236 246 255 264 267 265 244 220 211 216 219 212 199 196 191 184 186 193 197 194 189 190 194 192 185 183 182 185 186 181 178 177 174 181 185 195 240 289 306 314 315 309 286 262 253 249 245 242 243 237 229 225 224 227 229 231 235 235 233 230 227 228 229 228 230 232 236 241 245 247 249 247 249 257 257 250 243 237 236 233 230
216 217 217 218 224 236 248 261 268 261 236 219 214 218 220 209 194 191 188 184 185 191 192 185 181 186 189 187 184 183 183 186 187 183 180 175 171 174 175 173 30 345 321 312 313 314 303 285 278 274 261 254 254 247 234 227 223 225 227 229 233 232 227 224 223 222 222 223 221 221 229 239 246 253 256 252 251 254 256 260 256 240 233 233 229
216 214 213 213 222 235 247 266 275 257 230 217 217 220 218 207 193 188 187 184 184 187 186 179 177 180 182 185 186 184 185 186 185 183 181 175 170 165 156 118 28 5 327 310 310 312 311 305 302 294 268 255 255 246 231 222 218 220 224 228 230 227 221 217 213 212 212 215 215 213 216 226 238 247 251 252 253 252 246 247 252 244 237 237 234
212 209 209 213 223 235 256 275 267 242 223 215 216 218 215 206 193 187 187 185 183 185 185 181 179 181 184 187 186 184 187 185 183 187 186 182 175 170 170 161 356 356 339 311 302 305 305 304 301 289 265 250 246 240 225 215 215 218 220 225 227 226 224 219 214 211 207 207 211 212 214 217 221 229 239 248 252 249 244 238 235 235 234 236 241
208 204 201 205 219 247 268 266 242 224 220 214 214 218 216 206 193 188 187 185 183 184 185 183 184 186 187 186 183 183 185 184 193 202 199 195 192 194 210 288 340 351 351 323 299 294 289 284 281 270 249 238 234 230 221 216 221 225 222 221 222 224 225 226 222 216 207 205 209 212 219 219 214 216 221 229 238 236 236 237 235 243 245 239 241
201 196 196 211 248 270 270 251 225 217 218 215 216 218 213 203 194 189 188 186 185 186 187 188 190 190 187 184 181 181 184 192 208 215 211 212 216 225 262 326 341 351 354 327 296 282 273 267 260 244 228 223 218 212 208 210 217 223 221 216 217 221 225 227 224 217 208 204 204 206 215 217 212 217 216 210 216 222 219 213 222 247 257 249 244
194 194 215 255 266 261 254 236 220 214 215 216 218 215 208 199 193 190 189 189 188 188 192 194 194 190 186 184 181 182 191 200 207 217 225 228 231 245 279 323 343 344 341 324 296 277 265 256 245 228 214 209 205 198 191 191 192 196 205 208 211 215 217 216 212 205 199 196 192 194 205 209 206 212 213 203 205 215 217 206 208 239 253 249 247
192 214 262 265 250 236 228 223 217 211 212 213 213 211 203 194 191 190 189 191 191 191 196 197 192 189 188 185 182 186 196 198 201 211 219 226 236 248 265 299 332 327 325 318 291 273 260 247 235 218 204 196 190 185 174 168 166 170 179 188 195 195 190 187 183 178 178 179 182 189 198 203 203 202 201 192 186 188 197 196 194 226 255 255 252
213 260 266 245 229 217 213 215 211 206 207 206 206 208 201 191 189 190 190 191 193 194 197 198 193 191 192 187 184 189 194 196 200 206 211 222 235 240 252 283 314 319 318 306 281 267 252 234 221 204 191 179 172 169 161 156 156 160 165 169 171 171 170 171 169 165 166 167 176 187 191 193 197 196 192 186 181 177 179 190 197 207 229 243 250
244 258 246 232 222 206 207 212 208 200 200 201 201 204 199 190 187 189 191 192 194 196 199 199 196 194 193 189 187 191 196 199 205 210 217 226 231 235 252 280 307 315 305 285 270 258 242 220 201 186 175 166 161 157 152 151 153 158 160 158 156 158 164 169 168 165 164 164 172 181 181 184 194 196 193 189 186 182 183 195 210 214 220 229 238
241 237 221 218 210 202 205 210 206 200 199 198 198 200 197 190 189 190 192 194 197 199 200 200 196 193 192 190 191 193 197 202 209 216 225 229 229 236 256 280 299 306 284 263 255 244 228 202 180 170 163 158 154 150 149 149 151 156 156 150 146 146 151 158 160 160 160 163 171 179 180 180 186 191 190 183 174 170 180 205 224 231 236 240 237
225 213 205 204 201 201 203 204 204 202 201 198 196 196 195 192 191 192 194 197 199 200 202 201 197 193 192 192 195 197 199 205 212 221 225 225 229 241 260 277 286 281 258 247 237 226 212 187 169 158 153 151 148 147 148 147 148 151 149 144 141 139 138 142 145 146 146 152 162 174 180 178 177 177 166 153 147 146 169 217 241 247 247 251 248
212 203 202 200 200 203 201 200 204 205 203 202 199 197 197 197 194 194 199 202 202 202 201 199 196 196 196 198 201 202 204 209 216 225 226 226 236 247 260 272 273 243 235 228 214 209 195 177 164 152 146 144 145 146 143 141 140 138 137 135 132 131 130 130 135 137 137 139 142 143 147 149 142 136 123 118 126 152 189 204 227 243 245 249 250
201 203 205 201 203 205 199 199 206 207 206 205 202 200 201 201 197 197 201 204 207 206 200 194 193 197 200 204 209 209 210 213 218 225 229 230 237 243 253 263 241 211 224 213 200 199 185 172 162 152 147 146 146 144 140 137 134 129 128 126 123 120 117 115 118 121 122 122 118 111 107 104 99 98 104 108 121 158 179 180 205 231 235 236 236
202 205 207 204 207 208 200 202 209 210 209 208 207 206 207 207 204 200 203 209 212 209 202 195 194 200 203 204 208 211 212 214 217 222 223 225 230 233 242 242 205 204 217 199 190 190 182 174 164 156 154 153 149 145 142 140 134 129 128 126 124 121 116 113 110 107 106 106 108 109 105 98 92 90 95 106 126 149 150 150 176 213 220 219 220
210 211 212 208 210 209 200 204 211 213 214 215 215 214 214 215 211 203 206 214 213 207 204 202 202 206 209 207 207 208 211 214 217 218 218 218 221 226 234 222 192 199 212 194 186 186 185 185 177 171 167 162 157 153 152 149 144 140 139 139 138 132 124 117 110 105 105 107 112 116 112 101 92 82 76 71 76 116 132 136 154 181 200 207 207
215 221 221 212 211 211 206 208 214 216 218 222 224 225 225 223 216 206 208 213 211 206 205 206 209 213 215 216 214 211 211 212 215 218 217 217 220 223 232 221 190 193 209 201 192 190 192 195 192 188 182 173 168 165 163 161 158 156 155 153 152 144 133 129 130 131 131 129 124 124 118 110 105 67 320 313 313 312 305 299 266 210 205 206 207
215 225 226 217 214 219 221 221 222 224 226 231 237 240 239 233 219 209 211 215 214 211 208 209 213 217 219 223 223 218 213 211 215 218 215 217 220 222 228 221 191 189 207 210 203 194 195 205 203 198 193 185 182 181 178 178 175 173 170 167 168 168 168 172 176 189 196 207 230 238 258 273 270 274 277 282 287 288 289 290 287 278 263 247 238
219 220 219 218 221 228 230 229 227 228 232 238 243 246 248 241 227 216 214 217 218 216 215 214 216 219 220 224 227 222 217 215 215 213 211 215 217 220 228 221 194 189 200 210 213 201 197 212 215 209 205 199 199 200 198 199 197 195 192 191 197 204 219 228 225 227 236 243 251 258 263 262 256 254 254 254 260 265 270 274 275 274 272 267 261
222 218 214 215 219 223 224 224 223 226 232 239 242 245 246 241 237 230 218 215 215 216 218 219 218 219 220 224 228 226 223 222 219 215 214 214 214 221 231 220 193 189 197 207 217 204 197 214 223 220 220 218 219 220 219 220 219 216 214 215 221 230 241 248 247 246 246 248 253 257 258 257 255 255 256 258 259 259 261 263 265 266 266 265 263
219 216 215 215 215 215 216 218 220 224 230 235 238 240 239 232 237 246 229 214 214 216 218 221 221 220 219 222 227 228 227 227 224 221 219 218 221 227 227 211 192 192 198 206 212 204 204 218 223 223 226 226 227 229 231 234 234 233 233 233 237 241 244 245 246 248 248 248 253 257 259 261 262 264 265 267 268 267 265 263 262 263 264 266 265
212 211 212 210 207 209 214 218 224 229 233 236 238 239 238 233 238 248 245 235 237 232 222 223 225 224 222 222 224 226 227 227 227 227 227 228 230 222 209 201 196 197 202 205 205 208 217 222 223 225 227 230 231 232 234 238 242 246 248 249 249 246 244 242 242 244 248 251 254 257 261 264 265 266 266 268 271 271 270 267 265 263 262 263 263
209 207 206 202 201 205 211 217 223 228 232 235 239 243 246 246 247 251 254 255 259 252 223 217 223 223 222 224 227 229 231 233 233 232 227 222 218 206 198 199 201 201 207 208 205 210 218 223 227 228 229 234 237 237 240 242 245 251 254 255 253 249 247 247 244 242 243 247 251 257 262 265 267 266 265 265 268 270 270 269 267 265 261 257 256
205 204 204 201 200 204 211 217 219 221 221 224 231 241 248 248 244 245 248 248 247 236 217 207 209 207 206 216 225 230 238 240 230 216 203 194 194 195 195 198 202 208 213 211 212 220 222 222 227 230 232 236 239 241 244 247 249 252 256 257 255 253 253 253 249 243 240 241 247 255 262 266 266 264 261 262 265 267 268 267 266 265 264 259 255
198 199 200 196 197 204 211 219 223 222 219 216 220 229 237 239 237 236 237 236 232 224 205 187 191 194 192 202 209 212 221 214 190 187 187 184 189 194 194 197 203 210 214 214 221 230 230 223 225 228 232 235 238 241 244 246 249 251 253 254 254 253 253 252 250 246 241 241 247 256 264 267 264 258 255 258 262 264 265 266 266 267 267 264 259
194 195 195 195 198 204 208 215 220 221 220 216 212 214 220 224 227 231 233 227 219 213 194 173 172 175 180 194 198 193 194 188 179 184 189 189 192 196 199 203 206 209 215 219 225 232 231 226 225 227 230 233 236 239 241 243 245 247 248 249 249 249 250 248 246 246 246 247 253 261 266 268 266 262 259 259 260 260 262 264 267 268 268 266 262
198 197 197 199 202 206 210 214 216 215 215 213 208 207 210 214 217 223 229 229 228 226 206 179 170 166 170 188 196 197 200 198 193 193 196 200 202 201 204 208 209 212 217 221 225 227 226 226 227 228 229 231 234 237 238 239 241 242 245 249 251 253 256 256 252 250 255 258 261 264 267 268 269 268 268 269 267 263 261 263 265 267 268 266 263
205 205 204 205 206 207 211 214 215 214 212 210 207 207 208 207 206 209 216 222 228 232 222 203 191 182 182 193 200 207 212 211 209 208 210 212 211 208 209 211 211 215 219 221 224 225 225 226 229 231 230 231 235 236 236 237 238 240 245 251 256 259 263 265 263 261 264 265 263 263 266 268 270 270 271 273 272 268 263 261 263 265 267 266 263
209 209 209 209 206 204 207 211 214 216 217 215 213 213 214 212 209 211 219 225 229 230 224 219 223 228 232 232 222 220 222 218 216 219 220 219 216 215 216 217 216 217 221 223 225 227 227 225 225 230 234 236 238 240 240 239 239 242 247 252 257 260 261 264 266 268 270 270 266 265 265 267 269 269 269 269 268 265 262 260 260 262 265 264 261
209 210 211 213 212 207 206 211 216 220 226 231 231 233 239 243 243 244 248 249 247 243 231 221 221 227 236 244 239 233 232 229 227 228 224 221 220 220 221 223 224 223 224 228 230 234 237 234 227 230 235 236 236 236 238 242 245 249 253 254 256 259 261 262 264 265 266 267 267 268 268 268 269 268 266 264 260 257 256 256 258 260 263 262 258
196 204 209 212 210 202 199 206 213 218 226 237 243 243 245 251 258 261 265 270 272 271 261 240 223 214 216 225 232 234 234 232 232 234 232 229 228 226 224 226 229 229 229 232 235 239 245 245 238 234 236 241 243 239 235 241 246 249 253 255 256 256 258 259 260 261 262 263 265 268 269 270 269 267 264 260 255 252 251 252 254 257 260 260 254
170 188 195 199 198 186 185 193 199 206 217 227 234 238 242 254 266 269 270 272 274 275 274 264 242 222 215 214 218 227 233 232 231 233 234 235 235 233 230 230 232 234 235 236 239 244 248 249 245 241 242 248 255 253 241 239 243 245 248 252 254 255 256 257 258 259 261 262 264 267 268 268 268 266 264 260 256 251 249 248 249 252 257 257 252
185 188 184 186 182 171 165 165 170 190 212 220 225 234 242 250 257 256 250 246 245 243 243 244 242 239 234 229 225 227 230 228 228 230 232 234 235 236 235 235 235 237 239 242 245 248 250 250 249 249 249 252 257 259 252 244 244 246 247 250 252 254 256 258 258 259 260 261 263 265 266 267 266 265 263 261 259 255 251 248 247 250 255 255 250
166 169 170 169 166 160 153 152 164 193 213 222 225 232 237 237 237 238 235 233 235 235 236 240 242 241 240 238 236 237 237 235 234 233 230 230 231 234 235 237 238 240 242 245 246 246 247 249 250 250 252 254 257 259 258 253 250 249 250 252 253 255 256 257 257 259 260 262 263 264 265 265 264 262 261 260 259 257 253 249 248 250 253 253 248
159 161 166 168 168 168 164 167 189 213 224 229 231 236 239 235 232 236 243 249 255 258 258 258 256 253 250 247 243 240 240 239 238 237 236 233 233 233 235 238 241 242 244 245 245 245 246 248 250 251 253 255 257 257 258 258 255 254 255 257 258 258 258 258 260 262 263 264 264 264 264 263 261 260 259 258 257 256 253 250 250 251 250 248 246
232 219 217 209 201 197 192 197 211 220 225 226 227 230 232 230 231 237 243 248 253 258 262 263 263 261 259 257 253 250 249 244 239 236 236 236 237 237 238 239 241 241 242 243 244 246 247 249 252 254 257 259 259 258 258 258 257 257 259 262 264 264 263 264 265 266 267 267 266 264 262 261 260 260 259 258 256 254 252 250 250 250 247 244 243
258 259 261 256 238 226 222 222 222 224 227 227 227 229 232 234 238 241 242 241 242 247 252 256 259 260 261 261 261 261 260 256 248 242 240 240 240 241 241 242 242 243 244 245 247 250 252 255 258 261 263 264 263 261 260 258 258 259 261 264 266 267 267 268 269 269 269 269 268 266 263 261 260 259 259 258 255 253 251 249 249 247 244 242 242
245 245 248 248 239 233 233 233 231 231 231 231 233 235 238 241 244 245 246 247 249 250 252 255 257 258 259 259 258 258 258 256 253 251 249 248 247 246 246 246 246 247 248 249 251 253 255 257 260 262 263 263 263 262 261 260 260 262 264 266 267 268 270 271 272 272 272 271 270 268 265 262 259 258 258 257 256 254 251 247 245 243 241 241 242
245 237 234 234 234 234 237 239 240 240 239 239 239 239 240 244 246 247 248 250 252 253 254 254 255 255 255 254 253 253 254 253 253 253 253 253 252 252 251 251 252 252 252 253 254 255 256 258 260 261 261 261 261 262 262 263 264 265 266 268 269 270 271 272 273 274 273 272 270 267 265 263 260 258 256 257 259 259 253 245 239 239 240 240 242
250 245 240 238 238 238 241 243 245 247 248 248 248 247 247 248 250 251 251 251 253 254 254 254 254 254 254 254 254 254 255 255 256 256 255 255 255 254 254 255 255 256 256 257 257 258 259 260 261 262 262 263 263 264 265 266 267 268 270 270 271 272 272 273 273 273 273 273 270 266 264 263 261 258 256 256 260 263 260 251 237 232 236 239 239
246 246 245 245 244 245 246 247 247 248 249 250 251 252 251 252 253 253 254 254 256 257 257 258 258 258 258 258 259 259 259 260 260 260 260 259 259 258 258 258 258 258 258 258 258 259 259 260 261 261 262 263 264 265 266 267 267 268 270 271 272 273 273 272 270 269 270 271 269 266 262 261 260 259 257 257 260 262 263 258 242 227 228 234 236
246 247 248 249 250 251 252 252 252 252 251 251 252 252 253 254 254 254 255 256 257 258 259 260 261 261 262 262 262 262 262 262 263 263 263 263 262 262 262 262 262 262 261 261 261 261 261 262 262 263 264 265 267 268 269 269 269 270 270 270 270 270 270 269 268 267 269 271 268 265 262 261 262 262 262 262 262 260 259 259 252 238 229 229 231
255 255 256 257 258 259 259 258 258 258 257 257 257 257 256 256 256 256 256 257 258 258 259 260 261 262 263 263 264 264 264 265 265 265 265 265 265 265 265 265 265 265 265 265 266 266 266 266 267 267 267 268 269 270 271 272 272 271 271 271 269 268 266 265 264 265 267 268 265 261 260 261 262 264 265 265 264 263 259 256 253 248 238 229 229
259 259 259 260 261 261 261 262 263 263 264 264 264 263 263 263 263 263 263 263 263 263 263 264 265 265 266 267 267 267 267 267 268 268 268 268 268 268 268 268 268 268 269 269 269 269 270 270 270 271 271 270 270 269 270 271 271 271 271 270 268 266 263 261 260 260 262 263 262 258 255 256 260 263 265 264 262 262 262 257 250 245 240 234 231
258 260 261 262 263 263 264 265 266 267 267 268 268 269 270 270 271 271 271 271 271 271 271 271 271 271 271 272 272 272 272 272 272 272 273 273 273 273 273 273 273 273 273 273 273 273 273 273 272 272 271 270 270 268 267 267 267 268 268 268 267 266 263 259 257 257 257 259 261 261 260 258 260 261 261 260 258 259 262 262 254 245 239 235 232